Погода в Джигде

Россия / Хабаровский край     57°32′45″N   135°53′10″E
темп.,
°C
ветер,
м/с
пор.,
м/с
влажн.,
%
обл.,
%
осадки,
мм/ч
давл.,
гПа
погр.,
м
11 апреля, вс
вс1101:00−3ссз1198100 0.3 100826
04:00−5сз3697100 8.1 1009451
07:00−9зсз41093100 1.9 1014736
10:00−8зсз5786100 3.0 1016957
13:00−7зсз5677100 0.3 10161418
16:00−6сз5772100 0.4 10171432
19:00−8сз497795 0.2 1018886
22:00−12з269295 0.2 1021171
12 апреля, пн
пн1201:00−13зюз279199 0.0 1020224
04:00−13зюз3990100 0.1 1020457
07:00−13з3991100 0.1 1020525
10:00−9зсз5878100 0.4 10181397
13:00−7зсз5768100 0.1 10181999
16:00−7зсз4767100 0.3 10171709
19:00−8зсз3779100 0.2 1018388
22:00−15юз119692 0.3 102011
13 апреля, вт
вт1301:00−19юз119928 0.0 10219
04:00−19юз1110072 0.0 10209
07:00−15з1196100 0.1 101957
10:00−9зсз1185100 0.2 1018392
13:00−5сз1278100 0.3 1015912
16:00−4ссз1271100 0.6 1013990
19:00−5с1186100 0.6 101360
22:00−11юз119687 0.7 101410
14 апреля, ср
ср1401:00−16ююв119860 0.0 10149
04:00−18ююз119963 0.0 10149
07:00−16ю119772 0.0 101437
10:00−7юз018271 0.0 1011353
13:00−3сз116976 0.1 10091106
16:00−3зсз126089 0.3 10071182
19:00−5ю118599 0.2 100712
22:00−11ююв219446 0.3 100918
15 апреля, чт
чт1501:00−13ю119488 0.0 100928
04:00−15ююз119621 0.0 101026
07:00−13ююз139141 0.0 101075
10:00−5юз237477 0.0 1009441
13:00−1з236997 0.0 10091034
16:000зюз2365100 0.1 10091044
19:00−2ююв11837 0.0 101010
22:00−9юв11945 0.0 101415